Yatton Keynell, United Kingdom

4:21 AM BST on April 25, 2019 (GMT +0100)
Yatton Keynell

Weather History for 03740 - July, 1996

Change the Weather History Date:

Saturday, July 13, 1996

  Actual Average Record
Temperature  
Mean Temperature 63 °F -  
Max Temperature 71 °F 69 °F - ()
Min Temperature 55 °F 53 °F - ()
Degree Days  
Heating Degree Days 2    
Growing Degree Days 13 (Base 50)    
Moisture  
Dew Point 56 °F    
Average Humidity 81    
Maximum Humidity 100    
Minimum Humidity 57    
Precipitation  
Precipitation 0.00 in 0.07 in - ()
Sea Level Pressure  
Sea Level Pressure 30.10 in    
Wind  
Wind Speed 9 mph ()    
Max Wind Speed 18 mph    
Max Gust Speed 31 mph    
Visibility 5.8 miles    
Events      
T = Trace of Precipitation, MM = Missing Value Source: Averaged Metar Reports

Daily Weather History Graph

Daily Weather History Graph

Search for Another Location

Airport or City:

Astronomy

Jul. 13, 1996 Rise Set
Actual Time 5:06 AM BST 9:20 PM BST
Civil Twilight 4:21 AM BST 10:05 PM BST
Nautical Twilight 3:15 AM BST 11:10 PM BST
Astronomical Twilight 1:46 AM BST 12:41 AM BST
Moon 3:33 AM BST (7/13) 7:21 PM BST (7/13)
Length of Visible Light 17h 44m
Length of Day
16h 14m
Waning Crescent, 4% of the Moon is Illuminated
Jul 13
Waning Crescent
Jul 15
New
Jul 23
First Quarter
Jul 30
Full
Aug 6
Last Quarter

Hourly Weather History & Observations

Time (BST) Temp. Dew Point Humidity Pressure Visibility Wind Dir Wind Speed Gust Speed Precip Events Conditions
12:00 AM 55.4 °F 53.6 °F 94% 30.06 in 6.2 mi SW 8.1 mph - N/A   Mostly Cloudy
12:50 AM 55.4 °F 53.6 °F 94% 30.06 in 6.2 mi SW 5.8 mph - N/A   Mostly Cloudy
1:00 AM 55.4 °F 53.6 °F 94% 30.06 in 6.2 mi SW 5.8 mph - N/A   Mostly Cloudy
1:50 AM 55.4 °F 53.6 °F 94% 30.06 in 5.0 mi SW 6.9 mph - N/A   Mostly Cloudy
2:00 AM 55.4 °F 53.6 °F 94% 30.06 in 5.0 mi SW 6.9 mph - N/A   Mostly Cloudy
2:50 AM 55.4 °F 53.6 °F 94% 30.06 in 3.1 mi SW 6.9 mph - N/A   Mostly Cloudy
3:00 AM 55.4 °F 53.6 °F 94% 30.06 in 3.1 mi SW 6.9 mph - N/A   Mostly Cloudy
3:50 AM 55.4 °F 55.4 °F 100% 30.06 in 3.7 mi WSW 5.8 mph - N/A   Light Drizzle
4:00 AM 55.4 °F 55.4 °F 100% 30.06 in 3.7 mi WSW 5.8 mph - N/A   Light Drizzle
4:50 AM 55.4 °F 55.4 °F 100% 30.06 in 6.2 mi SW 4.6 mph - N/A   Overcast
5:00 AM 55.4 °F 55.4 °F 100% 30.06 in 6.2 mi SW 4.6 mph - N/A   Overcast
5:50 AM 55.4 °F 53.6 °F 94% 30.06 in 6.2 mi SW 5.8 mph - N/A   Mostly Cloudy
6:00 AM 55.4 °F 53.6 °F 94% 30.06 in 6.2 mi SW 5.8 mph - N/A   Mostly Cloudy
6:50 AM 57.2 °F 53.6 °F 88% 30.06 in 6.2 mi SW 5.8 mph - N/A   Mostly Cloudy
7:00 AM 57.2 °F 53.6 °F 88% 30.06 in 6.2 mi SW 5.8 mph - N/A   Mostly Cloudy
7:50 AM 59.0 °F 51.8 °F 77% 30.06 in 6.2 mi SW 8.1 mph - N/A   Mostly Cloudy
8:00 AM 59.0 °F 51.8 °F 77% 30.06 in 6.2 mi SW 8.1 mph - N/A   Mostly Cloudy
8:50 AM 62.6 °F 55.4 °F 77% 30.06 in 6.2 mi WSW 15.0 mph - N/A   Scattered Clouds
9:00 AM 62.6 °F 55.4 °F 77% 30.06 in 6.2 mi WSW 15.0 mph - N/A   Scattered Clouds
9:50 AM 64.4 °F 55.4 °F 73% 30.09 in 6.2 mi WSW 15.0 mph - N/A   Mostly Cloudy
10:00 AM 64.4 °F 55.4 °F 73% 30.09 in 6.2 mi WSW 15.0 mph - N/A   Mostly Cloudy
10:50 AM 64.4 °F 57.2 °F 77% 30.09 in 6.2 mi WSW 11.5 mph - N/A   Mostly Cloudy
11:00 AM 64.4 °F 57.2 °F 77% 30.09 in 6.2 mi WSW 11.5 mph - N/A   Mostly Cloudy
11:50 AM 66.2 °F 57.2 °F 73% 30.09 in 6.2 mi West 15.0 mph - N/A   Mostly Cloudy
12:00 PM 66.2 °F 57.2 °F 73% 30.09 in 6.2 mi West 15.0 mph - N/A   Mostly Cloudy
12:50 PM 66.2 °F 57.2 °F 73% 30.09 in 6.2 mi WSW 16.1 mph - N/A   Mostly Cloudy
1:00 PM 66.2 °F 57.2 °F 73% 30.09 in 6.2 mi WSW 16.1 mph - N/A   Mostly Cloudy
1:50 PM 69.8 °F 55.4 °F 60% 30.09 in 6.2 mi WSW 18.4 mph 31.1 mph N/A   Mostly Cloudy
2:00 PM 69.8 °F 55.4 °F 60% 30.09 in 6.2 mi WSW 18.4 mph 31.1 mph N/A   Mostly Cloudy
2:50 PM 71.6 °F 55.4 °F 57% 30.09 in 6.2 mi West 17.3 mph - N/A   Scattered Clouds
3:00 PM 71.6 °F 55.4 °F 57% 30.09 in 6.2 mi West 17.3 mph - N/A   Scattered Clouds
3:50 PM 69.8 °F 57.2 °F 64% 30.12 in 6.2 mi West 18.4 mph - N/A   Mostly Cloudy
4:00 PM 69.8 °F 57.2 °F 64% 30.12 in 6.2 mi West 18.4 mph - N/A   Mostly Cloudy
4:50 PM 66.2 °F 57.2 °F 73% 30.12 in 6.2 mi WSW 18.4 mph - N/A   Mostly Cloudy
5:00 PM 66.2 °F 57.2 °F 73% 30.12 in 6.2 mi WSW 18.4 mph - N/A   Mostly Cloudy
5:50 PM 66.2 °F 55.4 °F 68% 30.12 in 6.2 mi WSW 15.0 mph - N/A   Scattered Clouds
6:00 PM 66.2 °F 55.4 °F 68% 30.12 in 6.2 mi WSW 15.0 mph - N/A   Scattered Clouds
6:50 PM 66.2 °F 57.2 °F 73% 30.12 in 6.2 mi West 12.7 mph - N/A   Scattered Clouds
7:00 PM 66.2 °F 57.2 °F 73% 30.12 in 6.2 mi West 12.7 mph - N/A   Scattered Clouds
7:50 PM 64.4 °F 57.2 °F 77% 30.15 in 6.2 mi West 13.8 mph - N/A   Partly Cloudy
8:00 PM 64.4 °F 57.2 °F 77% 30.15 in 6.2 mi West 13.8 mph - N/A   Partly Cloudy
8:50 PM 62.6 °F 57.2 °F 82% 30.15 in 6.2 mi WSW 12.7 mph - N/A   Partly Cloudy
9:00 PM 62.6 °F 57.2 °F 82% 30.15 in 6.2 mi WSW 12.7 mph - N/A   Partly Cloudy
9:50 PM 60.8 °F 57.2 °F 88% 30.18 in 6.2 mi WSW 11.5 mph - N/A   Scattered Clouds
10:00 PM 60.8 °F 57.2 °F 88% 30.18 in 6.2 mi WSW 11.5 mph - N/A   Scattered Clouds
10:50 PM 60.8 °F 59.0 °F 94% 30.18 in 6.2 mi WSW 10.4 mph - N/A   Mostly Cloudy
11:00 PM 60.8 °F 59.0 °F 94% 30.18 in 6.2 mi WSW 10.4 mph - N/A   Mostly Cloudy
11:50 PM 60.8 °F 59.0 °F 94% 30.18 in 2.5 mi WSW 11.5 mph - N/A   Light Drizzle